EW5206 Weather Reports


Display with metric or nautical units.
time (UTC)temp
F
wind
direction
speed
MPH
gust
MPH
rain 1hr
in
rain 24hr
in
rain mn
in
humidity
%
barometer
mb
20260903164511 96 0.0 0.0 0.00 0.00 0.00 44 1016.4
20260903163008 95 0.0 0.0 0.00 0.00 0.00 48 1016.6
20260903161507 95 0.0 0.0 0.00 0.00 0.00 47 1016.7
20260903160011 94 0.0 0.0 0.00 0.00 0.00 49 1016.9
20260903154506 94 0.0 0.0 0.00 0.00 0.00 48 1017.0
20260903153005 93 0.0 0.0 0.00 0.00 0.00 51 1017.1
20260903151505 94 0.0 0.0 0.00 0.00 0.00 51 1017.2
20260903150002 95 0.0 0.0 0.00 0.00 0.00 54 1017.1
20260903144558 94 0.0 0.0 0.00 0.00 0.00 55 1017.2
20260903143107 91 0.0 0.0 0.00 0.00 0.00 59 1017.1
20260903141553 90 0.0 0.0 0.00 0.00 0.00 58 1017.1
20260903140050 89 0.0 0.0 0.00 0.00 0.00 62 1017.1
20260903134545 87 0.0 0.0 0.00 0.00 0.00 65 1017.2
20260903133041 84 0.0 0.0 0.00 0.00 0.00 69 1017.3
20260903131540 80 0.0 0.0 0.00 0.00 0.00 75 1017.5
20260903130033 78 0.0 0.0 0.00 0.00 0.00 79 1017.6
20260903124534 76 0.0 0.0 0.00 0.00 0.00 82 1017.6
20260903123037 73 0.0 0.0 0.00 0.00 0.00 88 1017.6
20260903121532 70 0.0 0.0 0.00 0.00 0.00 91 1017.6
20260903120023 69 0.0 0.0 0.00 0.00 0.00 91 1017.6
20260903114524 69 0.0 0.0 0.00 0.00 0.00 91 1017.5
20260903113033 69 0.0 0.0 0.00 0.00 0.00 91 1017.3
20260903111520 68 0.0 0.0 0.00 0.00 0.00 91 1017.1
20260903110016 68 0.0 0.0 0.00 0.00 0.00 91 1017.0
20260903104515 68 0.0 0.0 0.00 0.00 0.00 90 1016.9
20260903103013 68 0.0 0.0 0.00 0.00 0.00 91 1016.6
20260903101512 69 0.0 0.0 0.00 0.00 0.00 91 1016.6
20260903100014 69 0.0 0.0 0.00 0.00 0.00 90 1016.5
20260903094509 69 0.0 0.0 0.00 0.00 0.00 88 1016.5
20260903093011 70 0.0 0.0 0.00 0.00 0.00 87 1016.6
20260903091515 70 0.0 0.0 0.00 0.00 0.00 86 1016.5
20260903090003 71 0.0 0.0 0.00 0.00 0.00 85 1016.3
20260903084601 72 0.0 0.0 0.00 0.00 0.00 84 1016.3
20260903083059 72 0.0 0.0 0.00 0.00 0.00 83 1016.2
20260903081559 73 0.0 0.0 0.00 0.00 0.00 82 1016.3
20260903080105 73 0.0 0.0 0.00 0.00 0.00 80 1016.3
20260903074558 73 0.0 0.0 0.00 0.00 0.00 82 1016.3
20260903073057 73 0.0 0.0 0.00 0.00 0.00 82 1016.3
20260903071558 72 0.0 0.0 0.00 0.00 0.00 83 1016.2
20260903070056 72 0.0 0.0 0.00 0.00 0.00 84 1016.3
20260903064556 72 0.0 0.0 0.00 0.00 0.00 83 1016.3
20260903063055 72 0.0 0.0 0.00 0.00 0.00 84 1016.2
20260903061559 72 0.0 0.0 0.00 0.00 0.00 84 1016.2
20260903060053 72 0.0 0.0 0.00 0.00 0.00 82 1016.3
20260903054551 73 0.0 0.0 0.00 0.00 0.00 81 1016.3
20260903053050 73 0.0 0.0 0.00 0.00 0.00 81 1016.2
20260903051549 73 0.0 0.0 0.00 0.00 0.00 81 1016.2
20260903050047 74 0.0 0.0 0.00 0.00 0.00 80 1016.2
20260903044546 74 0.0 0.0 0.00 0.00 0.00 81 1016.3
20260903043046 74 0.0 0.0 0.00 0.00 0.00 80 1016.5
20260903041544 74 0.0 0.0 0.00 0.00 0.00 78 1016.6
20260903040038 75 0.0 0.0 0.00 0.00 0.00 77 1016.7
20260903034543 76 0.0 0.0 0.00 0.00 0.00 75 1016.8
20260903033037 77 0.0 0.0 0.00 0.00 0.00 73 1016.8
20260903031538 77 0.0 0.0 0.00 0.00 0.00 72 1016.7
20260903030036 78 0.0 0.0 0.00 0.00 0.00 71 1016.7
20260903024536 78 0.0 0.0 0.00 0.00 0.00 71 1016.7
20260903023035 78 0.0 0.0 0.00 0.00 0.00 70 1016.7
20260903021535 78 0.0 0.0 0.00 0.00 0.00 70 1016.8
20260903020049 78 0.0 0.0 0.00 0.00 0.00 69 1016.7
20260903014536 79 0.0 0.0 0.00 0.00 0.00 68 1016.8
20260903013034 79 0.0 0.0 0.00 0.00 0.00 70 1016.9
20260903011538 79 0.0 0.0 0.00 0.00 0.00 69 1016.9
20260903010032 80 0.0 0.0 0.00 0.00 0.00 68 1016.9
20260903004532 81 0.0 0.0 0.00 0.00 0.00 68 1016.8
20260903003031 81 0.0 0.0 0.00 0.00 0.00 65 1016.5
20260903001533 82 0.0 0.0 0.00 0.00 0.00 64 1016.4
20260903000031 83 0.0 0.0 0.00 0.00 0.00 63 1016.4
20260902234530 84 0.0 0.0 0.00 0.00 0.00 61 1016.3
20260902233029 85 0.0 0.0 0.00 0.00 0.00 60 1016.3
20260902231531 86 0.0 0.0 0.00 0.00 0.00 59 1016.3
20260902230029 86 0.0 0.0 0.00 0.00 0.00 58 1016.3
20260902224529 87 0.0 0.0 0.00 0.00 0.00 56 1016.3
20260902223030 88 0.0 0.0 0.00 0.00 0.00 54 1016.2
20260902221532 89 0.0 0.0 0.00 0.00 0.00 53 1016.2
20260902220030 89 0.0 0.0 0.00 0.00 0.00 52 1016.0
20260902214527 89 0.0 0.0 0.00 0.00 0.00 52 1016.1
20260902213030 90 0.0 0.0 0.00 0.00 0.00 52 1016.0
20260902211526 90 0.0 0.0 0.00 0.00 0.00 50 1016.0
20260902210025 90 0.0 0.0 0.00 0.00 0.00 50 1016.0
20260902204524 91 0.0 0.0 0.00 0.00 0.00 50 1016.2
20260902203021 91 0.0 0.0 0.00 0.00 0.00 49 1016.2
20260902201523 91 0.0 0.0 0.00 0.00 0.00 47 1016.2
20260902200019 92 0.0 0.0 0.00 0.00 0.00 48 1016.6
20260902194522 92 0.0 0.0 0.00 0.00 0.00 48 1016.5
20260902193014 92 0.0 0.0 0.00 0.00 0.00 47 1016.9
20260902191515 91 0.0 0.0 0.00 0.00 0.00 48 1017.0
20260902190011 92 0.0 0.0 0.00 0.00 0.00 47 1017.0
20260902184511 92 0.0 0.0 0.00 0.00 0.00 47 1017.1
20260902183009 92 0.0 0.0 0.00 0.00 0.00 46 1017.3
20260902181508 93 0.0 0.0 0.00 0.00 0.00 44 1017.4
20260902180008 94 0.0 0.0 0.00 0.00 0.00 43 1017.4
20260902174506 96 0.0 0.0 0.00 0.00 0.00 41 1017.5
20260902173007 96 0.0 0.0 0.00 0.00 0.00 44 1017.7
20260902171507 96 0.0 0.0 0.00 0.00 0.00 43 1017.8
20260902170006 97 0.0 0.0 0.00 0.00 0.00 43 1017.8